Moorhead, MN

5:26 PM CDT on September 21, 2017 (GMT -0500)
Moorhead Municipal

Weather History for KJKJ - August, 2014

Change the Weather History Date:

Saturday, August 30, 2014

  Actual Average (KFAR) Record (KFAR)
Temperature  
Mean Temperature 62 °F -  
Max Temperature 69 °F 76 °F 97 °F (1961)
Min Temperature 55 °F 53 °F 36 °F (1931)
Degree Days  
Heating Degree Days 3    
Growing Degree Days 12 (Base 50)    
Moisture  
Dew Point 60 °F    
Average Humidity 94    
Maximum Humidity 100    
Minimum Humidity 73    
Precipitation  
Precipitation 0.00 in - - ()
Sea Level Pressure  
Sea Level Pressure 29.88 in    
Wind  
Wind Speed 8 mph (NNE)    
Max Wind Speed 13 mph    
Max Gust Speed -    
Visibility 10 miles    
Events      
Averages and records for this station are not official NWS values.
T = Trace of Precipitation, MM = Missing Value Source: NWS Daily Summary

Daily Weather History Graph

Daily Weather History Graph

Search for Another Location

Airport or City:

Trip Planner

Search our weather history database for the weather conditions in past years. The results will help you decide how hot, cold, wet, or windy it might be!

Date:

Astronomy

Aug. 30, 2014 Rise Set
Actual Time 6:43 AM CDT 8:09 PM CDT
Civil Twilight 6:12 AM CDT 8:41 PM CDT
Nautical Twilight 5:33 AM CDT 9:19 PM CDT
Astronomical Twilight 4:52 AM CDT 10:00 PM CDT
Moon 11:52 AM CDT (8/30) 10:23 PM CDT (8/30)
Length of Visible Light 14h 29m
Length of Day
13h 26m
Waxing Crescent, 23% of the Moon is Illuminated
Aug 30
Waxing Crescent
Sep 2
First Quarter
Sep 8
Full
Sep 15
Last Quarter
Sep 24
New

Hourly Weather History & Observations

Time (CDT) Temp. Dew Point Humidity Pressure Visibility Wind Dir Wind Speed Gust Speed Precip Events Conditions
12:15 AM 60.8 °F 60.8 °F 100% 29.88 in 10.0 mi North 11.5 mph - N/A   Overcast
12:34 AM 60.8 °F 60.8 °F 100% 29.87 in 10.0 mi North 12.7 mph - N/A   Overcast
12:55 AM 60.8 °F 60.8 °F 100% 29.88 in 10.0 mi North 11.5 mph - N/A   Overcast
1:15 AM 60.8 °F 60.8 °F 100% 29.88 in 10.0 mi North 10.4 mph - N/A   Overcast
1:34 AM 60.8 °F 60.8 °F 100% 29.88 in 10.0 mi North 11.5 mph - N/A   Overcast
1:55 AM 60.8 °F 60.8 °F 100% 29.88 in 10.0 mi North 11.5 mph - N/A   Overcast
2:14 AM 60.8 °F 60.8 °F 100% 29.88 in 10.0 mi North 11.5 mph - N/A   Overcast
2:35 AM 60.8 °F 60.8 °F 100% 29.88 in 10.0 mi North 11.5 mph - N/A   Overcast
2:55 AM 60.8 °F 60.8 °F 100% 29.89 in 10.0 mi North 9.2 mph - N/A   Overcast
3:14 AM 60.8 °F 60.8 °F 100% 29.89 in 10.0 mi North 10.4 mph - N/A   Overcast
3:35 AM 59.0 °F 59.0 °F 100% 29.89 in 10.0 mi North 10.4 mph - N/A   Overcast
3:55 AM 59.0 °F 59.0 °F 100% 29.89 in 10.0 mi North 9.2 mph - N/A   Overcast
4:14 AM 59.0 °F 57.2 °F 94% 29.90 in 10.0 mi North 11.5 mph - N/A   Overcast
4:35 AM 57.2 °F 57.2 °F 100% 29.90 in 10.0 mi North 11.5 mph - N/A   Overcast
4:55 AM 57.2 °F 57.2 °F 100% 29.91 in 10.0 mi North 10.4 mph - N/A   Overcast
5:14 AM 57.2 °F 57.2 °F 100% 29.90 in 10.0 mi North 10.4 mph - N/A   Overcast
5:35 AM 57.2 °F 57.2 °F 100% 29.90 in 10.0 mi North 11.5 mph - N/A   Overcast
5:54 AM 57.2 °F 57.2 °F 100% 29.91 in 10.0 mi North 12.7 mph - N/A   Overcast
6:15 AM 57.2 °F 55.4 °F 94% 29.91 in 10.0 mi North 11.5 mph - N/A   Overcast
6:35 AM 55.4 °F 55.4 °F 100% 29.92 in 10.0 mi North 11.5 mph - N/A   Overcast
6:54 AM 55.4 °F 55.4 °F 100% 29.93 in 10.0 mi North 10.4 mph - N/A   Overcast
7:15 AM 55.4 °F 55.4 °F 100% 29.93 in 10.0 mi North 8.1 mph - N/A   Overcast
7:35 AM 55.4 °F 55.4 °F 100% 29.93 in 10.0 mi North 10.4 mph - N/A   Overcast
7:54 AM 55.4 °F 55.4 °F 100% 29.92 in 10.0 mi NNE 6.9 mph - N/A   Overcast
8:15 AM 55.4 °F 55.4 °F 100% 29.93 in 10.0 mi North 9.2 mph - N/A   Overcast
8:35 AM 57.2 °F 57.2 °F 100% 29.93 in 10.0 mi North 10.4 mph - N/A   Mostly Cloudy
8:54 AM 57.2 °F 57.2 °F 100% 29.92 in 10.0 mi North 11.5 mph - N/A   Mostly Cloudy
9:14 AM 57.2 °F 57.2 °F 100% 29.93 in 10.0 mi North 10.4 mph - N/A   Overcast
9:54 AM 57.2 °F 57.2 °F 100% 29.92 in 10.0 mi North 10.4 mph - N/A   Overcast
10:15 AM 59.0 °F 59.0 °F 100% 29.92 in 10.0 mi North 9.2 mph - N/A   Overcast
10:34 AM 60.8 °F 59.0 °F 94% 29.92 in 10.0 mi NNE 6.9 mph - N/A   Overcast
10:54 AM 60.8 °F 60.8 °F 100% 29.93 in 10.0 mi North 5.8 mph - N/A   Overcast
11:15 AM 62.6 °F 60.8 °F 94% 29.92 in 10.0 mi North 6.9 mph - N/A   Overcast
11:34 AM 62.6 °F 60.8 °F 94% 29.92 in 10.0 mi ENE 6.9 mph - N/A   Overcast
11:54 AM 62.6 °F 60.8 °F 94% 29.91 in 10.0 mi NNE 6.9 mph - N/A   Overcast
12:15 PM 62.6 °F 60.8 °F 94% 29.91 in 10.0 mi North 5.8 mph - N/A   Overcast
12:34 PM 62.6 °F 60.8 °F 94% 29.91 in 10.0 mi North 6.9 mph - N/A   Overcast
12:54 PM 64.4 °F 60.8 °F 88% 29.90 in 10.0 mi North 4.6 mph - N/A   Overcast
1:15 PM 64.4 °F 60.8 °F 88% 29.90 in 10.0 mi North 4.6 mph - N/A   Overcast
1:34 PM 64.4 °F 62.6 °F 94% 29.90 in 10.0 mi NW 3.5 mph - N/A   Overcast
1:54 PM 66.2 °F 62.6 °F 88% 29.89 in 10.0 mi Calm Calm - N/A   Overcast
2:14 PM 66.2 °F 62.6 °F 88% 29.89 in 10.0 mi Calm Calm - N/A   Overcast
2:34 PM 66.2 °F 62.6 °F 88% 29.89 in 10.0 mi Calm Calm - N/A   Overcast
2:55 PM 68.0 °F 60.8 °F 78% 29.88 in 10.0 mi East 3.5 mph - N/A   Overcast
3:14 PM 68.0 °F 60.8 °F 78% 29.87 in 10.0 mi Calm Calm - N/A   Overcast
3:34 PM 69.8 °F 60.8 °F 73% 29.87 in 10.0 mi Calm Calm - N/A   Overcast
3:55 PM 69.8 °F 60.8 °F 73% 29.87 in 10.0 mi Calm Calm - N/A   Overcast
4:14 PM 68.0 °F 60.8 °F 78% 29.87 in 10.0 mi SE 3.5 mph - N/A   Overcast
4:34 PM 68.0 °F 62.6 °F 83% 29.86 in 10.0 mi Calm Calm - N/A   Overcast
4:55 PM 68.0 °F 62.6 °F 83% 29.85 in 10.0 mi Calm Calm - N/A   Overcast
5:14 PM 68.0 °F 62.6 °F 83% 29.85 in 10.0 mi Calm Calm - N/A   Overcast
5:35 PM 69.8 °F 62.6 °F 78% 29.84 in 10.0 mi SSE 4.6 mph - N/A   Overcast
5:54 PM 69.8 °F 62.6 °F 78% 29.84 in 10.0 mi SE 3.5 mph - N/A   Overcast
6:14 PM 69.8 °F 62.6 °F 78% 29.84 in 10.0 mi SSE 4.6 mph - N/A   Overcast
6:35 PM 69.8 °F 64.4 °F 83% 29.84 in 10.0 mi South 4.6 mph - N/A   Overcast
6:54 PM 68.0 °F 64.4 °F 88% 29.84 in 10.0 mi SSE 4.6 mph - N/A   Overcast
7:14 PM 68.0 °F 64.4 °F 88% 29.83 in 10.0 mi SSE 3.5 mph - N/A   Overcast
7:35 PM 68.0 °F 64.4 °F 88% 29.83 in 10.0 mi Calm Calm - N/A   Overcast
7:54 PM 68.0 °F 64.4 °F 88% 29.83 in 10.0 mi Calm Calm - N/A   Overcast
8:35 PM 66.2 °F 64.4 °F 94% 29.82 in 10.0 mi Calm Calm - N/A   Mostly Cloudy
8:54 PM 66.2 °F 64.4 °F 94% 29.82 in 10.0 mi South 4.6 mph - N/A   Mostly Cloudy
9:14 PM 64.4 °F 64.4 °F 100% 29.82 in 10.0 mi South 3.5 mph - N/A   Scattered Clouds
9:35 PM 62.6 °F 62.6 °F 100% 29.82 in 10.0 mi South 4.6 mph - N/A   Clear
9:54 PM 62.6 °F 62.6 °F 100% 29.82 in 10.0 mi South 4.6 mph - N/A   Clear
10:14 PM 62.6 °F 62.6 °F 100% 29.81 in 7.0 mi SSE 5.8 mph - N/A   Clear
10:35 PM 62.6 °F 62.6 °F 100% 29.80 in 7.0 mi SSE 5.8 mph - N/A   Clear
10:54 PM 60.8 °F 60.8 °F 100% 29.79 in 1.0 mi SE 4.6 mph - N/A   Clear
11:14 PM 60.8 °F 60.8 °F 100% 29.80 in 7.0 mi SE 3.5 mph - N/A   Clear
11:35 PM 60.8 °F 60.8 °F 100% 29.82 in 7.0 mi South 4.6 mph - N/A   Clear
11:54 PM 60.8 °F 60.8 °F 100% 29.83 in 10.0 mi South 5.8 mph - N/A   Clear